Content
SEND FEEDBACK

Daily
Averages
Monthly
Summary
United States of America

SWANNANOA, NORTH CAROLINA


Home > North America > United States > North Carolina
Elevation: 2265 feet     Latitude: 35 36N     Longitude: 082 32W

WEATHER
 
SELECT A DAY
Number of Records: 229,440;   Date Range: 1/1/95 - 10/20/14
 
SHARE

PRINT THIS DATA

[ ← Previous Day ]
WEATHER ALMANAC - SEPTEMBER 28, 2013
[ Next Day → ]
[ °C ]   °F
Weather ElementAverageHighLow
Temperature61.4 °F69.1 °F (3:54 pm)54 °F (6:54 am)
Dewpoint53.9 °F57 °F (1:54 am)51.8 °F (10:19 am)
Humidity76.8 %93 % (5:54 am)61 % (3:54 pm)
Barometer30.21 in30.30 in (10:32 am)30.17 in (1:54 am)
Wind Speed1.8 mph6.9 mph (5:54 pm)
Weather ElementAverage
Visibility10 mi
Wind DirectionENE (55.9 °)

Weather ElementTotal
Precipitation---
Heating Degree Days3.5 (Base 65)
Growing Degree Days11.6 (Base 50)
Averaged from 27 records on September 28, 2013
WEATHER CONDITIONS BREAKOUT
WIND DIRECTION BREAKOUT
WEATHER BY HOUR - SEPTEMBER 28, 2013
[ °C ]   °F
Local TimeTemperatureDewpointHumidityBarometerVisibilityWind DirectionWind SpeedGust SpeedPrecipitationEventsConditions
1:54 AM60.1 °F57.0 °F90 %30.17 in10.0 miSouth (180°)3.5 mphOvercast
2:54 AM60.1 °F55.0 °F83 %30.17 in10.0 miSouth (170°)3.5 mphOvercast
3:54 AM57.0 °F54.0 °F89 %30.17 in10.0 miCalmScattered Clouds
4:54 AM55.9 °F53.1 °F90 %30.17 in10.0 miCalmClear
5:54 AM55.0 °F53.1 °F93 %30.19 in10.0 miCalmOvercast
6:54 AM54.0 °F52.0 °F93 %30.21 in10.0 miCalmOvercast
7:54 AM55.9 °F54.0 °F93 %30.23 in10.0 miCalmOvercast
8:54 AM57.0 °F54.0 °F89 %30.24 in10.0 miCalmOvercast
9:54 AM60.1 °F52.0 °F75 %30.25 in10.0 miCalmPartly Cloudy
10:19 AM60.8 °F51.8 °F72 %30.29 in10.0 miCalmMostly Cloudy
10:32 AM62.6 °F53.6 °F72 %30.30 in10.0 miCalmScattered Clouds
10:39 AM64.4 °F53.6 °F68 %30.30 in10.0 miCalmMostly Cloudy
10:54 AM64.0 °F54.0 °F70 %30.25 in10.0 miSE (130°)3.5 mphMostly Cloudy
11:01 AM62.6 °F53.6 °F72 %30.30 in10.0 miSouth (180°)4.6 mphMostly Cloudy
11:54 AM63.0 °F53.1 °F70 %30.24 in10.0 miSouth (180°)5.8 mphMostly Cloudy
12:54 PM64.9 °F53.1 °F65 %30.23 in10.0 miSouth (180°)3.5 mphOvercast
1:54 PM66.0 °F53.1 °F63 %30.20 in10.0 miEast (100°)4.6 mphOvercast
2:54 PM66.9 °F54.0 °F63 %30.17 in10.0 miCalmOvercast
3:54 PM69.1 °F55.0 °F61 %30.17 in10.0 miSSE (160°)5.8 mphMostly Cloudy
4:54 PM68.0 °F55.0 °F63 %30.17 in10.0 miVariable3.5 mphMostly Cloudy
5:54 PM66.0 °F54.0 °F65 %30.17 in10.0 miEast (100°)6.9 mphClear
6:54 PM63.0 °F54.0 °F72 %30.17 in10.0 miSE (130°)3.5 mphScattered Clouds
7:54 PM62.1 °F54.0 °F75 %30.17 in10.0 miCalmOvercast
8:54 PM62.1 °F55.9 °F80 %30.18 in10.0 miCalmOvercast
9:54 PM59.0 °F55.0 °F87 %30.19 in10.0 miCalmOvercast
10:54 PM60.1 °F54.0 °F80 %30.18 in10.0 miCalmOvercast
11:54 PM59.0 °F53.1 °F81 %30.18 in10.0 miCalmOvercast
Hourly data recorded from KAVL, located miles away from Swannanoa, North Carolina







STORIES FROM OUR PARTNERS